Date String (YYYY-MM-DD hh:mm:ss) UTC,Instrument flags,Ambient pressure (hPa),Sample flow (lpm),Bypass flow (lpm),Sample temperature (°C),Ambient temperature (°C),ASC tube jacket temperature (°C),LED temperature (°C),Box temperature (°C),Sample RH (%),Span deviation,Mass concentration (μg/m³),Mass concentration (μg/m³),Mass concentration (μg/m³)
DateTimeUTC,F1_M11,P_M11,Q1_M11,Q2_M11,T1_M11,T2_M11,T3_M11,T4_M11,T5_M11,U1_M11,ZSPAN_M11,X2_M11,X0_M11,X1_M11
2022-06-26 19:00:00,,0837.4,5.00,0.00,30.0,28.8,00.0,38.8,31.9,20.2,0000.3,0006.08,0014.05,0005.22
2022-06-26 19:01:00,,0837.4,5.00,0.00,30.0,28.9,00.0,38.8,31.9,20.2,0000.3,0006.06,0014.33,0005.23
2022-06-26 19:02:00,,0837.4,5.00,0.00,30.0,28.9,00.0,38.8,31.9,20.3,0000.2,0006.11,0014.24,0005.24
2022-06-26 19:03:00,,0837.3,5.01,0.00,30.0,29.0,00.0,38.8,32.0,20.4,-000.0,0006.08,0014.05,0005.22
2022-06-26 19:04:00,,0837.3,5.00,0.00,30.0,29.0,00.0,38.8,32.0,20.4,0000.1,0006.07,0014.01,0005.23
2022-06-26 19:05:00,,0837.2,4.99,0.00,30.1,29.1,00.0,38.8,32.0,20.1,0000.0,0006.11,0013.33,0005.26
2022-06-26 19:06:00,,0837.3,5.01,0.00,30.1,29.1,00.0,38.8,32.0,20.1,0000.2,0006.09,0013.07,0005.30
2022-06-26 19:07:00,,0837.3,5.01,0.00,30.1,29.2,00.0,38.9,32.0,20.1,0000.3,0006.07,0012.99,0005.31
2022-06-26 19:08:00,,0837.3,4.99,0.00,30.1,29.2,00.0,38.9,32.0,20.3,0000.0,0006.04,0012.56,0005.28
2022-06-26 19:09:00,,0837.3,5.00,0.00,30.1,29.2,00.0,38.9,32.0,20.6,-000.3,0006.03,0012.41,0005.27
2022-06-26 19:10:00,,0837.3,5.01,0.00,30.2,29.3,00.0,38.9,32.1,20.6,-000.5,0005.98,0012.12,0005.26
2022-06-26 19:11:00,,0837.2,5.00,0.00,30.2,29.3,00.0,38.9,32.1,20.3,-000.5,0005.96,0012.19,0005.24
2022-06-26 19:12:00,,0837.2,5.00,0.00,30.2,29.3,00.0,38.9,32.1,20.2,-001.0,0005.97,0011.84,0005.26
2022-06-26 19:13:00,,0837.1,5.00,0.00,30.2,28.7,00.0,38.9,32.0,20.3,-000.8,0005.97,0012.66,0005.27
2022-06-26 19:14:00,,0837.0,5.00,0.00,30.1,28.0,00.0,38.8,31.8,20.4,-000.9,0006.04,0012.52,0005.29
2022-06-26 19:15:00,,0837.0,5.01,0.00,30.0,27.8,00.0,38.8,31.7,20.6,-001.0,0006.10,0012.59,0005.30
2022-06-26 19:16:00,,0837.0,5.01,0.00,30.0,27.8,00.0,38.8,31.6,20.7,-000.7,0006.09,0013.37,0005.27
2022-06-26 19:17:00,,0837.0,4.99,0.00,29.9,27.9,00.0,38.8,31.6,20.8,-000.7,0006.09,0014.02,0005.26
2022-06-26 19:18:00,,0837.0,5.00,0.00,29.9,28.0,00.0,38.8,31.6,20.9,-000.7,0006.11,0013.97,0005.25
2022-06-26 19:19:00,,0837.0,5.00,0.00,29.9,28.1,00.0,38.7,31.6,20.7,-000.8,0006.11,0014.80,0005.26
2022-06-26 19:20:00,,0836.9,5.00,0.00,29.8,28.2,00.0,38.7,31.6,20.8,-000.5,0006.10,0014.62,0005.27
2022-06-26 19:21:00,,0836.9,5.01,0.00,29.8,28.3,00.0,38.7,31.6,20.7,-000.4,0006.15,0014.80,0005.29
2022-06-26 19:22:00,,0836.9,5.00,0.00,29.8,28.4,00.0,38.7,31.6,20.8,-000.3,0006.18,0014.92,0005.29
2022-06-26 19:23:00,,0836.9,4.99,0.00,29.8,28.5,00.0,38.7,31.6,20.8,0000.2,0006.20,0015.08,0005.27
2022-06-26 19:24:00,,0836.8,5.00,0.00,29.8,28.5,00.0,38.7,31.6,20.9,0000.3,0006.19,0014.25,0005.25
2022-06-26 19:25:00,,0836.8,5.01,0.00,29.8,28.6,00.0,38.7,31.7,21.0,0000.4,0006.15,0014.70,0005.23
2022-06-26 19:26:00,,0836.8,5.01,0.00,29.8,28.6,00.0,38.7,31.7,21.1,0000.6,0006.09,0015.08,0005.22
2022-06-26 19:27:00,,0836.8,5.00,0.00,29.8,28.7,00.0,38.7,31.7,20.9,0000.1,0006.12,0015.18,0005.21
2022-06-26 19:28:00,,0836.7,5.00,0.00,29.8,28.7,00.0,38.7,31.7,20.9,0000.1,0006.13,0014.55,0005.21
2022-06-26 19:29:00,,0836.7,5.00,0.00,29.9,28.7,00.0,38.7,31.7,21.2,-000.1,0006.15,0015.03,0005.19
2022-06-26 19:30:00,,0836.7,4.99,0.00,29.9,28.8,00.0,38.7,31.7,20.9,0000.1,0006.16,0014.95,0005.17
2022-06-26 19:31:00,,0836.6,5.01,0.00,29.9,28.8,00.0,38.7,31.7,20.9,-000.2,0006.19,0015.29,0005.15
2022-06-26 19:32:00,,0836.6,5.01,0.00,29.9,28.8,00.0,38.7,31.7,21.1,-000.7,0006.20,0015.52,0005.11
2022-06-26 19:33:00,,0836.6,4.99,0.00,29.9,28.8,00.0,38.7,31.7,21.2,-000.6,0006.17,0015.75,0005.07
2022-06-26 19:34:00,,0836.6,5.00,0.00,29.9,28.8,00.0,38.7,31.7,21.4,-000.1,0006.17,0015.83,0005.05
2022-06-26 19:35:00,,0836.6,4.99,0.00,29.9,28.9,00.0,38.7,31.8,21.1,0000.1,0006.08,0016.36,0005.03
2022-06-26 19:36:00,,0836.7,5.00,0.00,29.9,28.9,00.0,38.8,31.7,21.1,0000.6,0006.08,0016.61,0005.01
2022-06-26 19:37:00,,0836.8,5.01,0.00,29.9,28.9,00.0,38.8,31.7,21.2,0000.7,0006.11,0016.10,0005.01
2022-06-26 19:38:00,,0836.9,5.00,0.00,29.9,28.9,00.0,38.8,31.8,21.3,0001.2,0006.08,0015.64,0005.00
2022-06-26 19:39:00,,0836.9,5.01,0.00,29.9,29.0,00.0,38.8,31.8,21.1,0001.3,0006.04,0015.43,0004.97
2022-06-26 19:40:00,,0837.0,5.00,0.00,30.0,29.0,00.0,38.8,31.9,21.1,0001.1,0006.00,0015.75,0004.97
2022-06-26 19:41:00,,0837.0,5.00,0.00,30.0,29.0,00.0,38.8,31.9,21.0,0001.3,0006.00,0015.22,0004.99
2022-06-26 19:42:00,,0837.0,4.99,0.00,30.0,29.0,00.0,38.8,31.9,20.8,0001.8,0005.97,0015.07,0005.00
2022-06-26 19:43:00,,0837.0,5.00,0.00,30.0,29.1,00.0,38.8,31.9,20.7,0001.6,0005.96,0015.25,0005.04
2022-06-26 19:44:00,,0836.9,5.00,0.00,30.0,29.1,00.0,38.8,31.9,21.1,0001.7,0005.97,0015.09,0005.07
2022-06-26 19:45:00,,0836.9,5.00,0.00,30.0,29.0,00.0,38.8,31.9,21.0,0001.3,0005.94,0016.28,0005.07
2022-06-26 19:46:00,,0837.0,5.00,0.00,30.0,28.2,00.0,38.8,31.7,21.0,0001.1,0005.98,0015.62,0005.09
2022-06-26 19:47:00,,0837.0,5.01,0.00,29.9,27.8,00.0,38.7,31.5,21.1,0001.2,0005.99,0014.70,0005.09
2022-06-26 19:48:00,,0837.0,5.01,0.00,29.8,27.7,00.0,38.7,31.5,21.0,0001.1,0006.05,0014.65,0005.10
2022-06-26 19:49:00,,0836.9,4.98,0.00,29.8,27.7,00.0,38.7,31.4,21.3,0001.1,0006.08,0014.72,0005.11
2022-06-26 19:50:00,,0836.9,5.00,0.00,29.7,27.8,00.0,38.7,31.4,21.2,0001.2,0006.09,0014.58,0005.13
2022-06-26 19:51:00,,0836.9,5.00,0.00,29.7,27.9,00.0,38.6,31.5,21.1,0001.3,0006.11,0014.17,0005.16
2022-06-26 19:52:00,,0836.8,5.00,0.00,29.7,28.0,00.0,38.6,31.5,21.0,0001.5,0006.07,0014.08,0005.17
2022-06-26 19:53:00,,0836.7,5.00,0.00,29.7,28.1,00.0,38.6,31.5,21.2,0001.2,0006.06,0014.11,0005.17
2022-06-26 19:54:00,,0836.7,5.00,0.00,29.7,28.3,00.0,38.6,31.5,21.5,0001.5,0006.06,0014.46,0005.16
2022-06-26 19:55:00,,0836.7,5.00,0.00,29.7,28.4,00.0,38.6,31.6,21.5,0001.7,0006.05,0014.85,0005.13
2022-06-26 19:56:00,,0836.7,4.99,0.00,29.7,28.4,00.0,38.6,31.6,21.3,0001.5,0006.04,0014.36,0005.13
2022-06-26 19:57:00,,0836.7,5.00,0.00,29.7,28.5,00.0,38.6,31.6,21.4,0001.5,0006.04,0013.65,0005.13
2022-06-26 19:58:00,,0836.7,5.00,0.00,29.8,28.6,00.0,38.6,31.6,21.1,0001.7,0006.06,0013.93,0005.14
2022-06-26 19:59:00,,0836.7,5.00,0.00,29.8,28.6,00.0,38.6,31.6,21.4,0001.4,0006.05,0014.41,0005.16
